Location: Unspecified
(0.0000°N, 0.0000°E)
Time: 20:53:14
(UTC+00:00)

deb Kosmos-1275 - Pass Details

Date: 06 March 2026
Orbit: 928 x 975 km, 82.8° (Epoch: 10 April)

Event Time Altitude Azimuth Distance (km) Brightness Sun altitude
Rises 20:24:33 0° 215° (SW) 3,578 ? -33.2°
Reaches altitude 10° 20:27:58 10° 235° (SW) 2,629 ? -34.0°
Maximum altitude 20:31:38 17° 273° (W) 2,174 ? -34.9°
Drops below altitude 10° 20:35:17 10° 311° (NW) 2,623 ? -35.8°
Sets 20:38:43 0° 331° (NNW) 3,566 ? -36.7°
